Terug naar catalogus

FREGAT R/B

ActiefHEO
NORAD 54224·ROCKET BODY·🇷🇺 Russia

Gelanceerd Nov 2, 2022 vanaf Plesetsk Cosmodrome

Loading…

Volgende Passages (komende 24 uur)

TLE

VersSource: Space-Track

Epoch: Sep 8, 2026, 23:11 UTC

1 54224U 22145B   26251.96602117 -.00001202  00000-0  00000-0 0  9995
2 54224  63.5520 269.7665 7013241 265.5312  18.5295  2.02042054 28428

Volg FREGAT R/B in realtime met AllMySat

Download on the App Store